星链-2278 (STARLINK-2278 )

导读 | 豆包AI

STARLINK-2278是美国SpaceX公司星链(Starlink)星座中的一颗低轨通信卫星,于2021年3月24日发射入轨。作为星链全球卫星互联网项目的组成部分,它运行在近地轨道,依托相控阵天线等技术,为地面用户提供高速低延迟的互联网接入服务,助力实现星链覆盖全球偏远地区网络、缩小数字鸿沟的目标,目前该卫星仍在轨运行,支撑星座组网服务。

Basic Information
目录编号:
48026
目录名称:
STARLINK-2278
国际标识:
2021-024BB
轨道中心:
EARTH
卫星名称:
星链-2278
卫星全名:
星链-2278 (STARLINK-2278 )
卫星状态:
已陨落 最后检测时间 2024-12-21
发射日期:
2021-03-24 UTC
国别 :
美国 (US)
星等 :
--
Orbit Information
数据来源 国际轨道数据
星历时间: 2024-12-22T07:22:30+0800
轨道信息已过期494天
半长轴: 6537.043km
偏心率: 0.0010121
轨道倾角: 53.041°
近地点辐角 163.175°
升交点赤经 133.847°
平近点角 309.098°
近地点: 152.291km
远地点: 165.525km
周期: 87.666分钟
每日圈数: 16.42596
Detailed Information
固有亮度:
5
最大亮度:
2.5
卫星平台:
Starlink V1.0
覆盖范围:
全球
运营商:
太空探索技术公司
运营商所在国:
美国
制造商(研发单位):
太空探索技术公司
制造商所在国:
美国
使用方式:
暂无
Satellite Introduction
星链(Starlink)计划是由太空探索技术公司(SpaceX)提出的一个巨型低轨卫星互联网星座项目,计划在2019年至2024年间在太空搭建由约1.2万颗卫星组成的“星链”网络,其中1584颗将部署在地球上空550千米处的近地轨道,并从2020年开始工作。该卫星仍在工作。